Wind_Speed
13 12 12 9 9 10 12 9 5 5 2 1 4 1 8 12 11 8 15 21 15 12 8 8 7 6 7 6 4 4 7 11 16 21 22 22 24 25 24 24 25 24 23 22 21 21 21 21 22
16 14 13 12 10 13 12 13 6 2 1 2 4 3 3 10 12 15 12 20 19 14 10 9 7 6 8 7 6 8 11 13 17 20 22 25 26 25 25 25 23 22 21 21 20 20 20 21 23
21 19 16 12 16 20 6 8 14 8 6 4 5 6 5 11 14 19 14 19 18 16 11 9 8 5 6 8 8 10 13 16 20 22 23 25 26 26 27 25 23 21 20 20 20 20 20 20 21
23 22 21 20 20 18 18 9 10 7 6 7 8 6 9 7 13 12 18 19 15 14 12 9 7 6 6 7 8 10 14 17 20 22 24 25 25 27 25 24 22 20 19 19 19 18 18 18 17
25 25 26 23 30 26 19 19 15 12 3 7 9 2 7 11 11 15 17 15 11 12 13 11 10 8 8 9 9 10 14 17 20 22 24 26 27 27 24 22 20 19 18 18 17 16 16 15 15
27 28 25 30 34 30 27 19 19 16 7 4 4 5 4 8 8 12 13 12 10 6 9 12 13 13 11 10 11 11 14 16 19 22 22 25 28 26 24 21 20 18 17 16 14 12 11 12 11
30 30 34 33 33 33 33 27 22 17 10 6 9 8 5 5 10 10 10 10 10 9 9 10 13 15 15 13 13 14 17 18 20 20 22 26 27 26 23 21 19 17 15 13 11 10 8 8 7
30 30 35 36 35 36 28 31 27 21 20 7 7 8 15 11 17 15 15 15 11 9 11 12 11 15 17 18 18 18 20 22 22 23 23 27 27 26 23 21 18 17 14 12 10 8 8 6 5
29 31 38 37 33 31 28 29 29 27 25 16 10 13 15 16 17 18 17 13 13 14 10 11 16 14 17 20 22 24 25 26 25 25 25 27 27 26 24 21 19 17 15 13 11 9 7 5 3
29 37 38 36 31 31 32 32 28 28 30 23 11 5 15 21 23 22 21 20 18 15 15 12 14 19 20 20 23 25 28 30 30 29 27 28 27 25 23 22 19 17 15 13 11 9 7 4 1
29 37 33 32 30 29 31 34 29 28 37 29 20 12 3 6 27 24 22 18 14 18 14 12 13 17 21 23 25 27 29 31 33 33 30 30 29 28 25 22 18 15 14 12 12 10 9 7 3
25 26 25 26 25 27 29 27 28 30 37 33 28 19 15 11 23 24 25 22 21 18 19 15 13 15 19 20 25 30 32 34 35 35 33 32 32 29 26 22 20 17 15 13 11 11 10 9 5
22 21 21 20 20 21 23 26 26 36 30 33 34 29 21 17 21 25 24 24 24 21 20 18 18 20 20 25 21 26 32 36 38 37 35 34 33 30 26 23 21 19 17 15 13 12 13 11 8
15 16 17 19 20 20 22 25 25 30 22 27 33 34 26 22 20 23 24 31 30 24 25 25 24 24 24 27 25 23 25 35 40 40 38 36 34 32 29 25 25 22 20 18 17 15 15 14 12
17 19 20 20 19 20 20 28 32 26 25 23 28 28 30 22 21 23 25 28 26 24 25 24 22 22 25 24 26 25 28 29 39 42 40 39 38 35 33 29 29 26 25 22 20 19 17 19 18
18 21 21 17 13 17 21 36 26 25 27 29 25 27 28 21 21 23 29 31 29 26 26 26 25 24 24 22 24 31 41 23 35 43 43 43 41 37 34 31 29 26 27 25 24 22 21 21 24
17 16 16 14 11 13 20 32 30 26 27 31 30 30 29 31 29 30 27 26 28 26 26 30 30 29 28 29 31 30 29 30 29 39 44 46 44 41 40 33 32 32 32 30 28 26 25 24 25
13 15 18 18 14 13 21 32 28 24 25 33 30 31 36 39 38 35 34 34 30 30 29 29 32 29 30 33 34 34 33 35 34 34 41 44 46 46 40 43 37 37 33 39 32 30 32 27 30
14 19 22 19 14 25 24 30 26 21 27 30 31 28 31 39 43 42 42 39 39 36 36 36 37 36 31 32 32 29 35 36 37 38 38 40 43 44 43 42 47 42 43 35 39 34 38 29 33
15 19 19 21 15 24 26 33 26 24 24 26 30 31 32 34 37 41 42 44 42 45 46 43 42 42 39 37 35 34 34 35 37 39 36 37 44 47 54 47 40 42 45 40 38 44 39 24 27
14 19 21 24 26 24 24 37 32 31 31 31 31 34 34 31 29 34 35 41 44 41 43 45 47 45 42 37 34 34 32 33 34 36 35 32 31 40 50 46 46 42 44 53 46 45 39 32 29
22 22 23 25 26 24 27 31 36 34 35 36 37 34 33 28 22 23 28 31 35 36 39 42 40 40 40 38 37 35 33 34 34 36 35 33 35 32 30 42 60 53 39 37 40 46 54 49 41
23 23 27 28 29 31 26 21 37 29 37 40 39 33 32 30 32 29 27 31 35 34 31 31 32 36 38 38 36 35 33 35 34 36 37 36 38 37 36 36 42 53 55 65 45 38 52 66 53
28 30 29 35 28 17 29 25 47 51 49 46 37 32 32 34 35 38 35 32 32 35 36 36 33 31 31 33 32 32 32 36 38 40 41 40 40 39 36 39 42 44 40 43 30 31 45 44 46
20 23 9 5 3 10 21 19 36 51 29 32 30 36 37 37 36 36 45 42 40 37 38 38 37 35 33 31 28 29 32 37 40 38 37 38 40 40 41 42 43 45 44 47 37 31 36 37 42
21 18 8 6 6 16 25 13 44 33 25 23 24 26 34 39 39 39 45 50 47 43 41 41 37 40 37 34 33 33 33 33 34 35 35 38 44 43 45 48 46 45 39 37 32 41 38 35 34
11 14 19 18 24 11 14 31 41 29 13 18 26 17 25 28 27 32 37 44 50 52 48 44 40 41 40 39 37 37 39 39 39 40 41 39 42 42 39 42 44 44 40 36 36 38 37 37 37
18 15 9 7 4 6 5 9 16 17 8 10 10 10 4 14 24 26 25 37 41 49 52 44 40 43 44 40 38 38 37 37 40 45 44 39 36 41 42 37 39 44 45 44 43 40 41 42 38
13 11 8 8 9 4 4 4 10 10 10 11 4 9 11 14 13 18 14 11 34 40 39 39 42 42 36 35 33 33 35 34 28 24 23 22 28 32 35 39 35 32 32 37 40 42 40 38 39
10 11 9 4 5 12 12 20 17 15 17 20 23 21 18 20 23 17 11 9 11 19 26 32 33 33 31 22 16 19 22 19 19 13 15 18 19 24 27 32 36 39 38 36 36 36 37 39 43
Wind_Direction
235 241 247 248 225 233 237 225 239 258 253 114 86 352 270 270 231 197 220 206 180 158 144 122 120 104 114 125 137 154 162 157 155 152 149 146 139 137 133 127 124 118 111 105 100 94 88 83 76
243 244 242 248 237 234 242 223 202 148 44 152 201 286 261 241 232 216 215 198 184 163 156 140 140 127 128 131 153 168 167 161 157 156 153 148 145 140 135 130 124 117 111 105 99 94 89 86 81
241 245 245 240 237 233 241 186 200 142 105 131 177 224 230 224 238 222 214 192 188 175 165 157 155 147 137 140 156 169 170 165 162 161 157 153 148 143 138 133 128 121 114 108 103 98 93 88 83
242 241 244 239 232 231 232 188 173 138 135 127 168 195 222 231 208 222 200 197 194 183 170 166 172 168 151 136 155 172 175 172 168 164 160 157 150 146 142 137 131 123 117 110 106 102 99 95 89
233 238 239 241 237 236 236 216 235 283 270 98 132 221 197 174 162 175 192 197 184 185 180 179 175 186 177 154 155 175 181 180 174 169 166 161 155 152 146 140 134 127 120 116 113 110 106 100 93
229 233 235 238 238 234 239 230 239 262 267 184 141 242 286 230 197 191 192 192 198 182 189 190 186 181 190 180 166 175 187 186 184 175 172 166 160 155 151 148 141 133 128 126 124 118 114 102 94
231 232 237 242 243 239 238 236 241 255 258 249 230 228 243 237 240 224 206 208 202 199 201 201 201 190 192 190 184 181 191 191 190 186 179 171 165 161 158 155 149 142 138 135 131 128 122 116 104
228 233 241 241 244 249 238 245 240 245 239 227 205 210 226 258 219 247 244 239 239 229 219 210 207 208 198 194 195 195 193 193 193 191 188 178 172 169 166 164 159 154 150 148 145 141 135 120 107
228 230 238 241 243 248 251 246 241 244 240 218 196 215 209 223 213 219 238 238 242 251 247 235 225 214 215 207 201 200 199 195 196 197 194 188 181 177 174 172 172 167 164 165 162 158 151 145 126
225 233 242 246 250 254 255 255 253 246 240 234 207 220 219 224 220 230 235 247 245 254 257 251 238 219 216 216 216 210 206 201 200 201 200 195 190 186 184 183 183 179 177 178 180 184 183 179 127
235 242 246 254 258 262 265 262 258 253 230 229 226 215 204 248 221 222 218 228 239 243 240 236 237 236 225 221 219 219 218 213 206 203 203 200 197 195 193 191 191 193 193 195 197 205 208 206 198
244 254 261 265 267 268 264 274 258 245 231 231 233 237 232 229 233 238 221 217 218 224 247 233 234 236 238 227 226 227 222 219 215 210 206 206 204 202 199 198 199 203 207 209 215 220 218 207 211
254 264 261 264 264 265 266 261 261 235 239 235 241 236 237 238 213 236 236 232 224 232 234 234 233 236 245 232 226 231 232 227 222 218 214 210 208 208 206 204 208 213 214 219 223 227 222 216 216
249 258 261 254 257 264 267 265 256 243 257 246 245 241 237 241 239 237 237 228 232 234 240 244 240 232 234 233 230 231 235 237 231 224 220 217 213 209 215 208 217 221 222 224 229 229 228 223 227
255 269 259 259 264 266 269 261 250 264 265 257 241 241 236 235 251 251 244 230 231 234 241 244 240 236 230 224 228 235 231 230 237 233 226 222 219 219 215 216 219 222 226 228 233 235 233 233 232
271 279 288 291 288 262 264 264 262 269 266 262 249 241 237 244 260 247 233 237 245 238 235 237 236 238 232 229 234 239 256 238 234 233 230 229 226 223 224 226 231 233 238 234 238 240 240 240 245
284 291 301 306 297 277 259 268 268 270 270 264 260 247 240 234 235 239 237 236 235 232 233 243 245 239 238 241 251 251 246 249 249 234 233 233 231 229 228 229 232 233 247 248 242 247 248 249 251
296 305 310 315 315 272 260 260 266 266 264 263 266 264 258 250 237 234 240 246 243 236 238 245 253 252 248 248 250 248 244 240 243 239 233 234 236 235 232 228 233 236 245 250 250 250 255 251 255
293 303 305 316 305 295 278 281 275 270 254 254 255 264 263 260 251 247 242 242 246 241 243 250 251 251 254 254 248 247 249 241 239 242 237 229 248 242 238 237 237 232 247 259 260 258 263 261 260
300 307 314 312 320 299 293 278 273 276 275 269 266 265 268 265 262 248 248 246 243 245 245 245 250 251 257 253 254 246 246 245 245 247 241 238 239 236 240 250 243 239 240 252 256 255 261 259 258
294 304 312 312 314 304 307 282 282 282 281 277 274 268 272 279 257 238 241 237 233 237 242 245 243 251 253 252 254 254 244 243 249 246 242 236 233 236 236 238 243 241 241 244 243 249 251 254 251
301 302 308 306 308 301 300 288 288 288 283 278 270 267 270 268 252 232 235 235 234 240 242 239 238 240 240 242 245 249 253 259 254 251 249 247 238 236 244 241 244 235 239 229 231 241 243 249 262
296 299 301 302 299 298 282 271 282 287 281 277 278 274 271 259 247 240 232 224 228 227 233 231 231 233 235 239 243 247 246 249 251 246 247 247 249 250 239 254 242 237 237 235 237 249 264 249 262
289 296 293 299 297 264 273 256 276 275 276 281 280 278 275 271 264 252 243 237 230 228 231 234 234 234 237 242 243 245 246 249 250 249 252 255 255 247 244 246 252 253 254 254 259 255 249 255 258
290 297 317 295 250 267 282 264 262 272 273 283 275 283 275 271 274 254 246 240 237 235 237 237 237 238 236 240 241 241 247 247 251 257 259 255 255 253 250 256 258 260 256 253 257 256 255 254 260
291 283 247 261 265 290 292 254 267 276 276 286 278 271 274 278 275 272 249 242 237 238 241 240 246 234 236 236 239 238 245 248 252 256 259 257 252 252 252 256 256 257 256 254 249 256 261 262 269
286 270 276 262 270 273 260 272 282 281 287 280 262 275 271 277 283 275 262 246 242 240 240 244 245 230 233 237 241 244 248 252 254 259 261 255 263 254 253 252 252 250 252 251 246 253 255 259 267
271 281 258 260 277 255 239 276 265 305 314 275 226 219 286 337 295 285 262 232 238 239 237 232 227 226 231 235 240 245 250 255 259 263 262 254 249 245 246 250 250 248 250 255 255 256 263 262 265
263 260 260 276 260 290 310 283 339 327 333 311 259 268 266 261 273 319 296 245 228 228 215 212 216 219 224 233 239 246 255 264 259 256 252 248 244 242 241 242 245 248 250 251 253 255 255 256 258
268 255 257 231 272 281 286 280 294 302 316 307 293 283 279 280 264 265 293 281 211 199 196 205 211 216 219 226 238 246 239 239 229 231 247 246 239 239 241 243 246 249 251 251 252 253 255 257 258
Height
3143 3145 3146 3146 3150 3145 3144 3147 3149 3149 3149 3150 3149 3149 3150 3149 3150 3153 3151 3154 3156 3157 3158 3158 3159 3160 3161 3162 3164 3166 3168 3170 3172 3174 3176 3178 3180 3181 3183 3184 3186 3187 3188 3188 3189 3190 3191 3191 3191
3141 3142 3144 3144 3145 3142 3142 3145 3146 3148 3148 3148 3147 3148 3147 3148 3149 3150 3152 3153 3154 3156 3157 3158 3160 3161 3161 3163 3165 3166 3168 3170 3173 3174 3177 3179 3180 3183 3184 3186 3187 3189 3190 3190 3191 3192 3193 3193 3193
3138 3140 3141 3140 3140 3140 3141 3143 3145 3146 3145 3145 3146 3147 3147 3147 3149 3151 3153 3154 3155 3155 3157 3158 3160 3162 3164 3163 3165 3167 3169 3171 3174 3176 3178 3180 3182 3184 3185 3187 3189 3190 3191 3192 3193 3193 3193 3194 3194
3134 3138 3138 3135 3135 3138 3139 3143 3144 3143 3143 3143 3144 3146 3146 3146 3147 3150 3152 3154 3156 3156 3156 3158 3161 3163 3165 3165 3167 3169 3170 3172 3174 3177 3179 3181 3183 3185 3187 3188 3190 3191 3192 3193 3194 3194 3194 3194 3194
3130 3133 3132 3129 3130 3133 3137 3141 3142 3141 3143 3142 3143 3145 3146 3146 3147 3149 3152 3154 3155 3155 3155 3157 3160 3163 3165 3165 3167 3170 3172 3173 3175 3177 3179 3181 3183 3186 3188 3190 3191 3192 3194 3194 3195 3195 3194 3194 3194
3125 3127 3125 3125 3126 3130 3132 3137 3139 3140 3141 3142 3142 3143 3146 3146 3147 3148 3150 3152 3154 3155 3156 3157 3158 3160 3163 3166 3167 3169 3172 3174 3176 3177 3179 3181 3183 3186 3188 3190 3192 3193 3194 3195 3195 3196 3195 3195 3195
3119 3122 3120 3122 3124 3125 3128 3133 3137 3137 3139 3141 3140 3140 3144 3146 3147 3148 3149 3151 3152 3154 3155 3156 3158 3160 3162 3164 3166 3168 3171 3173 3176 3178 3179 3181 3183 3186 3189 3191 3193 3194 3195 3196 3196 3196 3196 3196 3195
3115 3116 3117 3117 3120 3118 3125 3128 3133 3135 3136 3139 3137 3137 3140 3146 3146 3146 3147 3149 3151 3153 3153 3156 3158 3160 3160 3162 3164 3167 3169 3172 3175 3178 3179 3181 3183 3186 3188 3191 3193 3194 3195 3196 3196 3197 3197 3197 3196
3111 3111 3110 3112 3115 3117 3121 3123 3128 3131 3131 3135 3134 3136 3137 3139 3141 3144 3144 3146 3150 3151 3153 3154 3157 3158 3160 3161 3162 3165 3167 3169 3173 3176 3179 3181 3183 3185 3187 3190 3192 3193 3194 3195 3196 3197 3197 3197 3197
3105 3104 3107 3111 3113 3114 3116 3120 3122 3125 3126 3129 3130 3133 3133 3135 3137 3140 3142 3143 3146 3148 3151 3151 3155 3156 3158 3159 3162 3163 3165 3167 3169 3173 3177 3180 3183 3186 3187 3189 3191 3192 3193 3195 3196 3197 3197 3197 3198
3100 3100 3105 3107 3110 3111 3110 3113 3117 3117 3118 3123 3126 3128 3126 3129 3134 3136 3139 3141 3143 3144 3147 3148 3151 3153 3155 3157 3159 3161 3164 3166 3167 3170 3174 3178 3181 3183 3186 3188 3190 3192 3193 3194 3194 3195 3196 3196 3196
3097 3100 3102 3105 3106 3106 3105 3109 3109 3110 3111 3117 3119 3122 3123 3124 3130 3133 3135 3137 3138 3141 3143 3145 3148 3151 3152 3154 3156 3158 3161 3163 3165 3168 3171 3175 3178 3181 3183 3187 3188 3190 3191 3193 3194 3194 3194 3195 3195
3097 3099 3100 3101 3102 3101 3103 3102 3104 3099 3106 3109 3112 3117 3117 3121 3121 3127 3130 3132 3134 3135 3139 3140 3143 3146 3149 3151 3152 3155 3158 3160 3163 3164 3168 3171 3174 3179 3183 3184 3187 3189 3189 3191 3192 3192 3192 3193 3193
3094 3095 3096 3096 3099 3098 3101 3100 3098 3097 3103 3106 3107 3110 3113 3116 3115 3120 3122 3126 3129 3132 3134 3137 3138 3141 3144 3146 3148 3151 3153 3157 3160 3162 3165 3168 3172 3175 3180 3181 3184 3187 3187 3188 3189 3189 3190 3191 3190
3090 3091 3091 3093 3096 3096 3098 3092 3089 3096 3098 3098 3102 3105 3107 3109 3111 3112 3117 3121 3125 3125 3129 3132 3133 3137 3138 3141 3144 3146 3147 3148 3155 3160 3162 3165 3169 3172 3175 3177 3180 3183 3184 3185 3187 3187 3187 3188 3187
3088 3088 3088 3092 3092 3094 3094 3083 3090 3092 3094 3093 3095 3099 3101 3103 3105 3108 3112 3114 3118 3118 3122 3125 3128 3132 3134 3138 3139 3140 3133 3137 3146 3152 3156 3162 3165 3168 3170 3174 3178 3179 3182 3182 3184 3184 3184 3184 3185
3086 3086 3087 3088 3088 3089 3088 3081 3084 3087 3088 3087 3089 3091 3093 3096 3100 3104 3105 3107 3111 3112 3115 3118 3121 3125 3129 3132 3135 3136 3137 3137 3141 3145 3149 3155 3159 3162 3165 3167 3172 3176 3178 3179 3179 3181 3180 3180 3180
3082 3082 3082 3082 3084 3082 3080 3075 3080 3082 3082 3081 3082 3084 3087 3088 3089 3095 3098 3101 3103 3105 3108 3112 3115 3117 3121 3124 3126 3128 3131 3134 3135 3138 3143 3147 3152 3156 3159 3163 3163 3167 3171 3176 3176 3176 3177 3175 3175
3081 3081 3080 3081 3080 3076 3075 3071 3074 3077 3076 3075 3075 3075 3076 3077 3082 3086 3088 3091 3094 3097 3100 3103 3108 3111 3112 3115 3117 3119 3122 3126 3128 3132 3135 3137 3145 3148 3151 3155 3159 3159 3163 3170 3171 3170 3173 3170 3169
3078 3077 3076 3075 3075 3072 3070 3064 3068 3071 3071 3070 3070 3070 3070 3069 3070 3074 3078 3081 3085 3088 3091 3095 3100 3103 3105 3108 3109 3111 3116 3119 3124 3126 3128 3133 3135 3137 3142 3149 3151 3153 3153 3160 3161 3162 3167 3163 3162
3075 3073 3072 3071 3069 3068 3064 3052 3058 3061 3062 3063 3063 3062 3061 3061 3061 3063 3066 3070 3075 3078 3082 3086 3090 3094 3096 3099 3101 3103 3107 3110 3114 3116 3121 3125 3128 3129 3133 3136 3140 3144 3146 3149 3152 3155 3155 3157 3155
3070 3071 3069 3067 3066 3063 3064 3040 3048 3051 3052 3052 3053 3054 3054 3055 3055 3055 3058 3062 3066 3071 3074 3076 3080 3084 3088 3091 3094 3096 3100 3103 3107 3111 3114 3118 3120 3123 3125 3127 3131 3137 3137 3140 3141 3144 3144 3147 3150
3068 3066 3065 3063 3062 3058 3057 3055 3036 3042 3040 3041 3044 3046 3046 3048 3049 3050 3051 3054 3057 3061 3065 3068 3072 3076 3080 3083 3086 3089 3093 3094 3097 3102 3104 3107 3111 3115 3118 3120 3121 3122 3125 3121 3123 3127 3136 3138 3144
3064 3062 3060 3057 3056 3047 3051 3051 3022 3032 3033 3035 3036 3037 3036 3038 3040 3042 3045 3047 3049 3052 3055 3059 3063 3067 3071 3075 3078 3082 3085 3087 3089 3093 3096 3098 3100 3106 3109 3113 3112 3116 3113 3105 3109 3116 3126 3129 3133
3060 3058 3054 3052 3051 3039 3041 3039 3027 3022 3031 3032 3030 3030 3029 3029 3029 3031 3033 3036 3040 3043 3046 3050 3053 3058 3063 3066 3070 3073 3077 3080 3082 3083 3086 3090 3092 3096 3101 3103 3105 3105 3109 3112 3096 3111 3116 3119 3121
3055 3056 3056 3052 3044 3036 3036 3027 3015 3020 3021 3022 3022 3021 3018 3018 3018 3018 3018 3022 3027 3031 3036 3040 3044 3049 3054 3058 3061 3065 3068 3071 3074 3076 3079 3080 3083 3086 3089 3092 3095 3098 3101 3102 3106 3107 3110 3113 3114
3049 3049 3049 3046 3041 3037 3029 3020 3013 3015 3011 3010 3015 3015 3014 3011 3009 3007 3005 3009 3014 3019 3025 3030 3035 3039 3045 3050 3054 3057 3059 3062 3064 3066 3068 3070 3073 3076 3079 3082 3085 3089 3092 3095 3098 3100 3104 3106 3108
3046 3045 3044 3043 3038 3033 3020 3019 3015 3011 3008 3009 3010 3011 3010 3007 3002 2999 2994 2995 3000 3005 3011 3018 3024 3031 3036 3042 3045 3048 3049 3051 3053 3055 3056 3058 3061 3065 3070 3074 3076 3080 3084 3087 3090 3092 3095 3097 3100
3041 3039 3040 3039 3038 3030 3023 3017 3015 3013 3011 3008 3007 3007 3004 3001 2999 2999 2995 2990 2991 2995 3000 3007 3015 3023 3030 3035 3038 3039 3042 3043 3044 3046 3047 3049 3051 3055 3060 3065 3069 3072 3075 3079 3082 3085 3087 3089 3093
3034 3034 3035 3035 3034 3031 3029 3011 3009 3011 3009 3004 3003 3002 3001 2998 2996 2995 2996 2994 2990 2992 2996 3004 3011 3018 3023 3027 3029 3032 3034 3036 3039 3040 3041 3043 3045 3048 3051 3055 3059 3063 3067 3070 3073 3077 3079 3080 3084